Flag for Canada Weather past 2 weeks in Prince Rupert, British Columbia, Canada

Now
48 °F

Sunny.


Feels Like: 44 °F
Forecast: 39 / 52 °F
Wind: 10 mph from Southeast

Location: Prince Rupert


UV Index: 0 (Low)

Visibility: 9 mi


Pressure: 29.91 "Hg

Humidity: 62%

Dew point: 36 °F

Location of Prince RupertLocation

Historic Weather in Prince Rupert

°F

Prince Rupert temperature yesterday

Maximum temperature yesterday: 46 °F (at 1:00 PM)
Minimum temperature yesterday: 43 °F (at 12:00 AM)
Average temperature yesterday: 44 °F

Past Weeks' High & Low Weather Summary

 TemperatureHumidityPressure
High54 °F (Apr 13, 2:00 PM)100% (Apr 3, 1:56 PM)30.31 "Hg (Apr 3, 1:56 PM)
Low32 °F (Apr 4, 6:00 AM)47% (Apr 13, 2:00 PM)29.34 "Hg (Apr 17, 6:00 AM)
Average43 °F89%29.87 "Hg
* Reported Apr 3 10:00 AM — Apr 18 10:00 AM, Prince Rupert, Weather by CustomWeather, © 2014

Note: Actual official high and low records may vary slightly from our data, if they occured in-between our weather recording intervals... More about our weather records

Advertising

Historic Weather Conditions — Data for Previous 24 hours

 ConditionsComfort  
Time TempWeatherWind HumidityBarometerVisibility
10:00 AM
Apr 18
46 °FSunny.10 mph76%29.91 "Hg9 mi
9:00 AM43 °FScattered clouds.8 mph87%29.92 "Hg9 mi
8:00 AM39 °FSunny.5 mph93%29.91 "Hg9 mi
7:00 AM37 °FClear.3 mph100%29.90 "Hg9 mi
6:00 AM37 °FClear.6 mph100%29.88 "Hg9 mi
5:00 AM39 °FPassing clouds.6 mph93%29.88 "Hg9 mi
4:00 AM39 °FPassing clouds.6 mph100%29.87 "Hg9 mi
3:03 AM41 °FOvercast.6 mph93%29.86 "Hg9 mi
2:56 AM41 °FMostly cloudy.6 mph93%29.85 "Hg9 mi
2:00 AM41 °FRain. Fog.6 mph93%29.85 "Hg3 mi
1:51 AM41 °FRain. Fog.14 mph93%29.85 "Hg3 mi
1:00 AM43 °FOvercast.6 mph93%29.83 "Hg9 mi
12:00 AM43 °FMostly cloudy.5 mph93%29.81 "Hg9 mi
11:49 PM
Apr 17
43 °FOvercast.5 mph93%29.81 "Hg9 mi
11:00 PM43 °FOvercast.3 mph93%29.80 "Hg9 mi
10:00 PM45 °FMostly cloudy.3 mph87%29.78 "Hg9 mi
9:00 PM45 °FOvercast.3 mph87%29.75 "Hg9 mi
8:00 PM45 °FMore clouds than sun.8 mph87%29.73 "Hg9 mi
7:00 PM45 °FMostly cloudy.8 mph87%29.72 "Hg9 mi
6:00 PM46 °FBroken clouds.5 mph82%29.70 "Hg9 mi
5:49 PM46 °FBroken clouds.3 mph82%29.70 "Hg9 mi
5:00 PM46 °FCloudy.7 mph87%29.68 "Hg9 mi
4:00 PM46 °FPartly sunny.7 mph87%29.67 "Hg9 mi
3:00 PM46 °FLight rain. Mostly cloudy.8 mph87%29.64 "Hg9 mi
2:00 PM45 °FLight rain. Fog.13 mph93%29.62 "Hg6 mi
1:54 PM45 °FLight rain. Fog.7 mph93%29.62 "Hg6 mi
1:00 PM46 °FBroken clouds.16 mph87%29.59 "Hg9 mi
12:00 PM43 °FLight rain. More clouds than sun.14 mph93%29.57 "Hg9 mi
11:00 AM43 °FLight rain. Fog.8 mph93%29.54 "Hg5 mi
Weather by CustomWeather, © 2014

See weather overview